| << 12.7. | 14.7. >> |
|
Windrichtung in Grad |
Windgeschw. in m/s |
Windspitzen in m/s |
Temp.Minima in °C |
Temperatur in °C |
Temp.Maxima in °C |
Luftfeuchte in % |
Luftdruck in hPa |
Taupunkt in °C |
Niederschlag in mm |
|
|---|---|---|---|---|---|---|---|---|---|---|
| ▲ Maxima | 2,1 | 5,1 | 31,5 | 31,9 | 32,3 | 69,1 | 1009,0 | 15,6 | 0,0 | |
| Ø Mittelwert | 334,2 | 0,9 | 2,3 | 24,5 | 24,8 | 25,1 | 49,7 | 1006,3 | 14,1 | 0,0 |
| ▼ Minima | 0,2 | 0,7 | 16,3 | 16,5 | 16,7 | 32,8 | 1003,5 | 11,9 | 0,0 | |
| ∑ Summe | 0,0 |
| Uhrzeit (MEZ) | Windrichtung in Grad | Windgeschw. in m/s | Windspitzen in m/s | Temp.Minima in °C | Temperatur in °C | Temp.Maxima in °C | Luftfeuchte in % | Luftdruck in hPa | Taupunkt in °C | Niederschlag in mm |
|---|---|---|---|---|---|---|---|---|---|---|
| 00:00 | 28,6 | 1,1 | 2,7 | 22,6 | 22,8 | 23,1 | 50,6 | 1009,0 | 13,0 | 0,0 |
| 00:10 | 34,2 | 0,6 | 1,7 | 22,2 | 22,5 | 22,8 | 50,4 | 1009,0 | 12,7 | 0,0 |
| 00:20 | 309,7 | 0,4 | 1,1 | 22,0 | 22,1 | 22,4 | 51,7 | 1009,0 | 12,9 | 0,0 |
| 00:30 | 17,3 | 0,3 | 1,3 | 21,7 | 21,8 | 22,0 | 51,3 | 1009,0 | 12,5 | 0,0 |
| 00:40 | 255,0 | 0,4 | 0,8 | 21,3 | 21,6 | 21,9 | 51,8 | 1008,9 | 12,5 | 0,0 |
| 00:50 | 236,6 | 0,5 | 1,0 | 20,6 | 21,0 | 21,4 | 54,6 | 1008,9 | 12,6 | 0,0 |
| 01:00 | 231,8 | 0,4 | 0,9 | 20,2 | 20,4 | 20,7 | 55,5 | 1008,9 | 12,4 | 0,0 |
| 01:10 | 236,5 | 0,4 | 1,0 | 20,1 | 20,2 | 20,4 | 56,5 | 1008,9 | 12,5 | 0,0 |
| 01:20 | 227,5 | 0,5 | 1,0 | 19,5 | 19,8 | 20,3 | 58,7 | 1008,8 | 12,7 | 0,0 |
| 01:30 | 234,4 | 0,4 | 1,1 | 19,2 | 19,4 | 19,7 | 60,0 | 1008,7 | 12,7 | 0,0 |
| 01:40 | 226,7 | 0,4 | 1,2 | 19,1 | 19,2 | 19,4 | 60,4 | 1008,7 | 12,7 | 0,0 |
| 01:50 | 226,5 | 0,5 | 1,2 | 18,8 | 19,0 | 19,3 | 61,3 | 1008,7 | 12,7 | 0,0 |
| 02:00 | 235,6 | 0,7 | 1,5 | 18,6 | 18,8 | 19,0 | 61,8 | 1008,6 | 12,6 | 0,0 |
| 02:10 | 246,3 | 0,5 | 1,3 | 18,4 | 18,7 | 18,9 | 61,9 | 1008,6 | 12,5 | 0,0 |
| 02:20 | 241,8 | 0,6 | 1,3 | 18,2 | 18,4 | 18,7 | 62,8 | 1008,6 | 12,5 | 0,0 |
| 02:30 | 237,9 | 0,5 | 1,4 | 18,0 | 18,2 | 18,4 | 63,2 | 1008,6 | 12,4 | 0,0 |
| 02:40 | 239,2 | 0,5 | 1,4 | 17,8 | 18,1 | 18,3 | 63,5 | 1008,6 | 12,4 | 0,0 |
| 02:50 | 242,4 | 0,6 | 1,1 | 17,6 | 17,9 | 18,1 | 64,0 | 1008,6 | 12,3 | 0,0 |
| 03:00 | 240,0 | 0,8 | 1,4 | 17,6 | 17,8 | 18,0 | 64,0 | 1008,6 | 12,2 | 0,0 |
| 03:10 | 238,6 | 0,6 | 1,4 | 17,4 | 17,7 | 17,9 | 64,5 | 1008,6 | 12,2 | 0,0 |
| 03:20 | 237,6 | 0,9 | 1,7 | 17,2 | 17,5 | 17,6 | 65,1 | 1008,7 | 12,1 | 0,0 |
| 03:30 | 240,3 | 0,5 | 1,1 | 17,0 | 17,1 | 17,4 | 66,1 | 1008,6 | 12,1 | 0,0 |
| 03:40 | 231,8 | 0,7 | 1,3 | 16,7 | 16,9 | 17,1 | 67,0 | 1008,6 | 12,0 | 0,0 |
| 03:50 | 235,1 | 0,4 | 0,9 | 16,5 | 16,7 | 16,8 | 67,4 | 1008,6 | 12,0 | 0,0 |
| 04:00 | 236,5 | 0,6 | 1,2 | 16,6 | 16,8 | 17,0 | 66,7 | 1008,6 | 11,9 | 0,0 |
| 04:10 | 233,9 | 0,5 | 1,3 | 16,5 | 16,7 | 16,9 | 67,0 | 1008,6 | 12,0 | 0,0 |
| 04:20 | 244,1 | 0,8 | 1,5 | 16,5 | 16,7 | 16,9 | 67,0 | 1008,6 | 11,9 | 0,0 |
| 04:30 | 239,3 | 0,8 | 1,6 | 16,4 | 16,7 | 16,9 | 67,3 | 1008,5 | 11,9 | 0,0 |
| 04:40 | 236,4 | 1,0 | 1,6 | 16,4 | 16,7 | 16,8 | 67,4 | 1008,5 | 11,9 | 0,0 |
| 04:50 | 240,9 | 0,7 | 1,4 | 16,4 | 16,6 | 16,8 | 67,7 | 1008,4 | 12,0 | 0,0 |
| 05:00 | 243,2 | 0,9 | 1,4 | 16,4 | 16,6 | 16,8 | 68,3 | 1008,4 | 12,0 | 0,0 |
| 05:10 | 238,2 | 0,7 | 1,3 | 16,3 | 16,5 | 16,7 | 69,1 | 1008,4 | 12,1 | 0,0 |
| 05:20 | 241,1 | 0,9 | 1,3 | 16,7 | 16,9 | 17,0 | 68,3 | 1008,4 | 12,3 | 0,0 |
| 05:30 | 249,1 | 0,7 | 1,4 | 17,0 | 17,1 | 17,3 | 67,8 | 1008,5 | 12,5 | 0,0 |
| 05:40 | 244,0 | 0,6 | 1,2 | 17,2 | 17,6 | 17,8 | 66,7 | 1008,5 | 12,6 | 0,0 |
| 05:50 | 246,7 | 0,3 | 1,0 | 17,7 | 18,2 | 18,7 | 66,1 | 1008,5 | 13,2 | 0,0 |
| 06:00 | 251,5 | 0,5 | 1,2 | 18,4 | 18,6 | 18,9 | 65,2 | 1008,5 | 13,3 | 0,0 |
| 06:10 | 250,6 | 0,4 | 1,0 | 18,4 | 18,5 | 18,8 | 65,9 | 1008,5 | 13,5 | 0,0 |
| 06:20 | 247,6 | 0,7 | 1,1 | 18,1 | 18,4 | 18,8 | 66,1 | 1008,6 | 13,3 | 0,0 |
| 06:30 | 261,0 | 0,6 | 1,1 | 18,1 | 18,2 | 18,4 | 67,8 | 1008,6 | 13,5 | 0,0 |
| 06:40 | 258,1 | 0,6 | 1,4 | 18,2 | 18,4 | 18,7 | 66,6 | 1008,6 | 13,4 | 0,0 |
| 06:50 | 256,1 | 0,5 | 1,2 | 18,5 | 18,8 | 19,2 | 65,4 | 1008,5 | 13,6 | 0,0 |
| 07:00 | 283,6 | 0,2 | 1,0 | 19,1 | 19,9 | 20,6 | 62,5 | 1008,5 | 13,9 | 0,0 |
| 07:10 | 278,3 | 0,5 | 1,1 | 20,2 | 20,4 | 20,7 | 59,4 | 1008,5 | 13,5 | 0,0 |
| 07:20 | 290,0 | 0,4 | 0,9 | 20,2 | 20,6 | 21,0 | 59,3 | 1008,5 | 13,7 | 0,0 |
| 07:30 | 269,3 | 0,4 | 1,3 | 20,9 | 21,4 | 21,8 | 56,0 | 1008,5 | 13,4 | 0,0 |
| 07:40 | 276,8 | 0,5 | 1,4 | 21,4 | 21,6 | 21,8 | 55,9 | 1008,5 | 13,6 | 0,0 |
| 07:50 | 301,3 | 0,4 | 1,4 | 21,4 | 21,9 | 22,4 | 54,9 | 1008,5 | 13,6 | 0,0 |
| Uhrzeit (MEZ) | Windrichtung in Grad | Windgeschw. in m/s | Windspitzen in m/s | Temp.Minima in °C | Temperatur in °C | Temp.Maxima in °C | Luftfeuchte in % | Luftdruck in hPa | Taupunkt in °C | Niederschlag in mm |
|---|---|---|---|---|---|---|---|---|---|---|
| 08:00 | 284,3 | 0,3 | 1,5 | 21,9 | 22,2 | 22,5 | 54,8 | 1008,4 | 13,8 | 0,0 |
| 08:10 | 275,5 | 0,4 | 1,1 | 22,4 | 22,9 | 23,3 | 52,9 | 1008,4 | 13,9 | 0,0 |
| 08:20 | 271,5 | 0,5 | 1,3 | 22,9 | 23,1 | 23,5 | 51,2 | 1008,4 | 13,6 | 0,0 |
| 08:30 | 326,6 | 0,5 | 1,2 | 23,0 | 23,4 | 23,8 | 51,3 | 1008,3 | 13,9 | 0,0 |
| 08:40 | 4,4 | 0,9 | 2,4 | 23,3 | 23,5 | 23,8 | 50,5 | 1008,3 | 13,6 | 0,0 |
| 08:50 | 304,9 | 0,8 | 2,0 | 23,3 | 23,5 | 23,8 | 50,4 | 1008,2 | 13,6 | 0,0 |
| 09:00 | 7,1 | 0,6 | 1,8 | 23,2 | 23,8 | 24,5 | 49,3 | 1008,1 | 13,6 | 0,0 |
| 09:10 | 10,1 | 0,6 | 1,5 | 24,1 | 24,5 | 25,3 | 47,7 | 1008,0 | 13,6 | 0,0 |
| 09:20 | 32,3 | 0,9 | 2,2 | 24,5 | 25,0 | 25,4 | 46,7 | 1007,9 | 13,6 | 0,0 |
| 09:30 | 21,0 | 0,6 | 1,8 | 24,9 | 25,4 | 25,8 | 45,9 | 1007,8 | 13,8 | 0,0 |
| 09:40 | 2,1 | 0,6 | 1,7 | 25,5 | 25,9 | 26,2 | 44,7 | 1007,7 | 13,8 | 0,0 |
| 09:50 | 351,2 | 0,8 | 2,2 | 25,4 | 25,9 | 26,7 | 44,8 | 1007,6 | 13,8 | 0,0 |
| 10:00 | 346,6 | 0,6 | 1,8 | 26,0 | 26,4 | 26,8 | 43,8 | 1007,5 | 13,9 | 0,0 |
| 10:10 | 333,8 | 0,8 | 2,1 | 26,4 | 26,7 | 27,1 | 43,3 | 1007,4 | 14,0 | 0,0 |
| 10:20 | 22,3 | 0,5 | 1,9 | 26,8 | 27,4 | 28,1 | 42,1 | 1007,3 | 14,2 | 0,0 |
| 10:30 | 168,5 | 0,5 | 2,0 | 28,1 | 28,4 | 28,7 | 40,3 | 1007,3 | 14,4 | 0,0 |
| 10:40 | 92,3 | 1,0 | 2,1 | 27,9 | 28,4 | 28,9 | 40,2 | 1007,2 | 14,2 | 0,0 |
| 10:50 | 98,6 | 0,8 | 2,5 | 27,9 | 28,3 | 28,8 | 40,3 | 1007,1 | 14,2 | 0,0 |
| 11:00 | 57,7 | 0,7 | 2,1 | 28,1 | 28,4 | 28,7 | 40,1 | 1007,0 | 14,2 | 0,0 |
| 11:10 | 357,2 | 1,0 | 2,6 | 27,9 | 28,4 | 28,8 | 40,6 | 1007,0 | 14,3 | 0,0 |
| 11:20 | 27,7 | 1,1 | 2,5 | 28,1 | 28,6 | 29,1 | 40,4 | 1006,8 | 14,4 | 0,0 |
| 11:30 | 47,6 | 1,0 | 3,0 | 28,3 | 28,8 | 29,3 | 39,3 | 1006,7 | 14,2 | 0,0 |
| 11:40 | 12,5 | 0,7 | 2,7 | 28,3 | 29,1 | 29,8 | 38,8 | 1006,6 | 14,3 | 0,0 |
| 11:50 | 0,2 | 0,9 | 3,3 | 28,3 | 28,9 | 29,7 | 39,0 | 1006,5 | 14,2 | 0,0 |
| 12:00 | 60,7 | 1,1 | 4,3 | 28,5 | 29,2 | 29,7 | 38,3 | 1006,5 | 14,1 | 0,0 |
| 12:10 | 42,1 | 0,9 | 2,2 | 29,3 | 29,7 | 30,0 | 37,4 | 1006,4 | 14,1 | 0,0 |
| 12:20 | 27,2 | 1,0 | 2,7 | 29,6 | 29,9 | 30,3 | 37,9 | 1006,3 | 14,5 | 0,0 |
| 12:30 | 93,7 | 1,2 | 2,8 | 30,0 | 30,2 | 30,4 | 37,2 | 1006,2 | 14,4 | 0,0 |
| 12:40 | 49,7 | 1,7 | 4,5 | 29,4 | 29,9 | 30,2 | 37,7 | 1006,1 | 14,4 | 0,0 |
| 12:50 | 67,5 | 1,3 | 3,0 | 29,7 | 29,9 | 30,2 | 37,2 | 1006,0 | 14,2 | 0,0 |
| 13:00 | 165,1 | 0,9 | 2,8 | 29,9 | 30,2 | 30,5 | 36,5 | 1005,9 | 14,2 | 0,0 |
| 13:10 | 104,4 | 0,7 | 4,0 | 29,9 | 30,4 | 31,0 | 36,8 | 1005,8 | 14,5 | 0,0 |
| 13:20 | 62,5 | 1,4 | 3,0 | 30,1 | 30,6 | 31,0 | 37,0 | 1005,7 | 14,6 | 0,0 |
| 13:30 | 45,1 | 1,4 | 3,8 | 30,4 | 30,7 | 31,0 | 36,8 | 1005,6 | 14,6 | 0,0 |
| 13:40 | 34,6 | 1,1 | 3,1 | 30,1 | 30,5 | 30,9 | 37,3 | 1005,6 | 14,8 | 0,0 |
| 13:50 | 33,5 | 1,1 | 2,9 | 29,9 | 30,4 | 30,9 | 36,9 | 1005,5 | 14,5 | 0,0 |
| 14:00 | 149,9 | 1,1 | 4,7 | 30,3 | 30,9 | 31,8 | 34,9 | 1005,4 | 14,0 | 0,0 |
| 14:10 | 112,1 | 0,8 | 2,5 | 31,5 | 31,8 | 32,2 | 34,1 | 1005,4 | 14,4 | 0,0 |
| 14:20 | 38,6 | 0,8 | 2,5 | 31,5 | 31,9 | 32,3 | 33,1 | 1005,3 | 14,1 | 0,0 |
| 14:30 | 6,3 | 1,1 | 2,7 | 31,3 | 31,6 | 31,9 | 32,8 | 1005,1 | 13,6 | 0,0 |
| 14:40 | 32,9 | 1,0 | 2,7 | 30,9 | 31,2 | 31,7 | 33,3 | 1005,0 | 13,5 | 0,0 |
| 14:50 | 22,7 | 1,4 | 3,0 | 29,8 | 30,7 | 31,2 | 37,9 | 1005,0 | 15,1 | 0,0 |
| 15:00 | 294,5 | 1,0 | 3,1 | 29,5 | 29,9 | 30,3 | 39,3 | 1004,9 | 15,1 | 0,0 |
| 15:10 | 331,5 | 1,1 | 2,9 | 29,6 | 30,0 | 30,2 | 39,3 | 1004,7 | 15,2 | 0,0 |
| 15:20 | 28,3 | 1,6 | 4,7 | 29,9 | 30,3 | 30,6 | 37,7 | 1004,6 | 14,7 | 0,0 |
| 15:30 | 24,2 | 1,5 | 3,4 | 29,9 | 30,3 | 30,6 | 37,6 | 1004,6 | 14,6 | 0,0 |
| 15:40 | 35,3 | 1,5 | 4,0 | 29,9 | 30,2 | 30,4 | 37,1 | 1004,6 | 14,3 | 0,0 |
| 15:50 | 9,8 | 0,9 | 2,3 | 29,9 | 30,2 | 30,5 | 37,1 | 1004,5 | 14,4 | 0,0 |
| Uhrzeit (MEZ) | Windrichtung in Grad | Windgeschw. in m/s | Windspitzen in m/s | Temp.Minima in °C | Temperatur in °C | Temp.Maxima in °C | Luftfeuchte in % | Luftdruck in hPa | Taupunkt in °C | Niederschlag in mm |
|---|---|---|---|---|---|---|---|---|---|---|
| 16:00 | 22,4 | 1,2 | 2,4 | 30,3 | 30,7 | 31,0 | 36,5 | 1004,4 | 14,5 | 0,0 |
| 16:10 | 32,2 | 1,2 | 3,1 | 30,5 | 30,8 | 31,0 | 38,2 | 1004,3 | 15,4 | 0,0 |
| 16:20 | 30,4 | 1,8 | 3,6 | 30,1 | 30,4 | 30,7 | 38,9 | 1004,3 | 15,3 | 0,0 |
| 16:30 | 23,7 | 1,6 | 3,1 | 29,9 | 30,1 | 30,3 | 39,1 | 1004,2 | 15,1 | 0,0 |
| 16:40 | 23,0 | 1,0 | 3,6 | 29,9 | 30,2 | 30,6 | 39,0 | 1004,1 | 15,3 | 0,0 |
| 16:50 | 18,4 | 1,1 | 3,6 | 30,1 | 30,6 | 31,0 | 38,6 | 1004,0 | 15,5 | 0,0 |
| 17:00 | 32,6 | 1,5 | 3,4 | 30,3 | 30,7 | 31,0 | 38,5 | 1003,8 | 15,3 | 0,0 |
| 17:10 | 33,9 | 1,6 | 3,8 | 30,5 | 30,8 | 31,0 | 38,4 | 1003,7 | 15,4 | 0,0 |
| 17:20 | 17,7 | 1,7 | 5,1 | 30,0 | 30,4 | 30,8 | 39,3 | 1003,6 | 15,5 | 0,0 |
| 17:30 | 23,9 | 1,6 | 4,1 | 29,9 | 30,2 | 30,4 | 39,8 | 1003,6 | 15,5 | 0,0 |
| 17:40 | 35,7 | 2,0 | 4,6 | 29,8 | 30,0 | 30,2 | 40,1 | 1003,6 | 15,4 | 0,0 |
| 17:50 | 27,4 | 2,0 | 4,6 | 29,4 | 29,6 | 29,7 | 40,9 | 1003,6 | 15,4 | 0,0 |
| 18:00 | 27,0 | 1,7 | 3,7 | 29,2 | 29,5 | 29,6 | 41,0 | 1003,6 | 15,4 | 0,0 |
| 18:10 | 36,9 | 1,8 | 4,3 | 29,2 | 29,5 | 29,6 | 41,0 | 1003,5 | 15,3 | 0,0 |
| 18:20 | 36,9 | 1,5 | 3,0 | 29,3 | 29,6 | 29,7 | 40,9 | 1003,5 | 15,4 | 0,0 |
| 18:30 | 26,1 | 1,5 | 3,5 | 29,1 | 29,5 | 29,7 | 41,2 | 1003,6 | 15,5 | 0,0 |
| 18:40 | 28,6 | 1,8 | 4,0 | 29,0 | 29,3 | 29,5 | 41,7 | 1003,6 | 15,5 | 0,0 |
| 18:50 | 27,4 | 1,9 | 4,1 | 28,8 | 29,0 | 29,2 | 42,2 | 1003,6 | 15,4 | 0,0 |
| 19:00 | 35,4 | 1,9 | 4,3 | 28,7 | 28,8 | 29,0 | 42,7 | 1003,6 | 15,4 | 0,0 |
| 19:10 | 28,4 | 2,1 | 4,9 | 28,4 | 28,7 | 28,8 | 43,2 | 1003,6 | 15,5 | 0,0 |
| 19:20 | 25,7 | 1,7 | 4,1 | 28,2 | 28,5 | 28,6 | 43,5 | 1003,7 | 15,4 | 0,0 |
| 19:30 | 31,9 | 1,7 | 4,2 | 28,2 | 28,4 | 28,6 | 43,4 | 1003,8 | 15,4 | 0,0 |
| 19:40 | 34,5 | 1,7 | 4,0 | 28,0 | 28,3 | 28,4 | 43,6 | 1003,7 | 15,3 | 0,0 |
| 19:50 | 29,9 | 1,7 | 3,6 | 27,7 | 28,0 | 28,2 | 44,3 | 1003,7 | 15,3 | 0,0 |
| 20:00 | 27,4 | 1,9 | 4,1 | 27,7 | 27,9 | 28,0 | 44,5 | 1003,6 | 15,3 | 0,0 |
| 20:10 | 33,2 | 1,7 | 3,3 | 27,5 | 27,7 | 27,8 | 44,9 | 1003,7 | 15,3 | 0,0 |
| 20:20 | 30,1 | 1,4 | 3,0 | 27,3 | 27,6 | 27,7 | 45,2 | 1003,8 | 15,3 | 0,0 |
| 20:30 | 35,2 | 1,6 | 3,6 | 27,0 | 27,3 | 27,5 | 46,0 | 1003,9 | 15,4 | 0,0 |
| 20:40 | 25,0 | 1,4 | 3,3 | 26,9 | 27,2 | 27,3 | 46,0 | 1003,9 | 15,2 | 0,0 |
| 20:50 | 30,9 | 0,8 | 3,0 | 26,5 | 26,8 | 27,2 | 47,2 | 1004,0 | 15,4 | 0,0 |
| 21:00 | 23,9 | 0,5 | 1,8 | 26,2 | 26,4 | 26,8 | 48,1 | 1004,0 | 15,5 | 0,0 |
| 21:10 | 18,2 | 0,6 | 2,0 | 25,9 | 26,2 | 26,4 | 48,7 | 1004,0 | 15,5 | 0,0 |
| 21:20 | 295,0 | 0,4 | 1,1 | 25,7 | 25,9 | 26,1 | 49,5 | 1004,0 | 15,6 | 0,0 |
| 21:30 | 333,6 | 0,5 | 1,6 | 25,3 | 25,6 | 25,9 | 50,4 | 1004,0 | 15,6 | 0,0 |
| 21:40 | 31,5 | 0,8 | 2,5 | 25,3 | 25,6 | 25,8 | 50,5 | 1004,0 | 15,5 | 0,0 |
| 21:50 | 23,3 | 0,5 | 1,9 | 25,2 | 25,4 | 25,7 | 50,7 | 1004,1 | 15,4 | 0,0 |
| 22:00 | 271,9 | 0,5 | 1,8 | 24,9 | 25,2 | 25,5 | 51,2 | 1004,1 | 15,5 | 0,0 |
| 22:10 | 20,6 | 0,9 | 2,8 | 24,9 | 25,1 | 25,3 | 51,7 | 1004,1 | 15,4 | 0,0 |
| 22:20 | 238,7 | 0,4 | 1,3 | 24,6 | 24,8 | 25,2 | 52,1 | 1004,2 | 15,4 | 0,0 |
| 22:30 | 263,5 | 0,6 | 1,8 | 24,3 | 24,6 | 24,9 | 52,6 | 1004,1 | 15,3 | 0,0 |
| 22:40 | 245,2 | 0,5 | 1,1 | 23,7 | 24,0 | 24,4 | 54,7 | 1004,1 | 15,5 | 0,0 |
| 22:50 | 251,0 | 0,4 | 1,2 | 23,5 | 23,7 | 23,9 | 55,4 | 1004,0 | 15,4 | 0,0 |
| 23:00 | 236,0 | 0,4 | 0,7 | 23,6 | 23,7 | 23,9 | 55,1 | 1003,9 | 15,4 | 0,0 |
| 23:10 | 236,9 | 0,6 | 0,9 | 23,1 | 23,4 | 23,7 | 56,6 | 1004,0 | 15,4 | 0,0 |
| 23:20 | 234,3 | 0,3 | 0,8 | 22,7 | 22,9 | 23,1 | 57,9 | 1004,0 | 15,4 | 0,0 |
| 23:30 | 241,4 | 0,5 | 1,0 | 22,4 | 22,7 | 23,0 | 58,8 | 1004,0 | 15,5 | 0,0 |
| 23:40 | 234,6 | 0,6 | 0,9 | 22,1 | 22,3 | 22,5 | 60,6 | 1004,0 | 15,5 | 0,0 |
| 23:50 | 245,1 | 0,5 | 0,9 | 21,8 | 22,0 | 22,1 | 61,4 | 1003,9 | 15,5 | 0,0 |
| << 12.7. | 14.7. >> |